Tracking 19242 objects as of 15-Aug-2018
HD Live streaming from Space Station
objects crossing your sky now

FENGYUN 1C DEB

Track FENGYUN 1C DEB now!
10-day predictions


NORAD ID: 29851
Int'l Code: 1999-025EV
Perigee: 857.7 km
Apogee: 1,072.2 km
Inclination: 99.5 °
Period: 104.2 minutes
Semi major axis: 7335 km
RCS: 0.0808 m2 (small)
Launch date: May 10, 1999
Source: People's Republic of China (PRC)
Launch site: Taiyaun Space Center, China (TSC)

Note: This is SATELLITE DEBRIS
aabbcc
Your satellite tracking list
Your tracking list is empty




NASA's NSSDC Master Catalog

Two Line Element Set (TLE):
1 29851U 99025EV  18227.41881958  .00000044  00000-0  76605-4 0  9990
2 29851  99.4730 180.0983 0146171  71.8041  41.6163 13.81719155584020
Source of the keplerian elements: AFSPC